FENGYUN 1C DEB, 30253

Orbit data source: Space-Track

FENGYUN 1C DEB, 30253 is space debris in SSO originally from a launch on Mon, 10 May 1999 UTC launched from the Taiyaun Space Center, China (TSC). Fengyun 1C debris stems from the Chinese weather satellite Fengyun-1C, which was intentionally destroyed by a Chinese anti-satellite missile in 2007. This event dramatically increased the amount of space debris, with thousands of trackable fragments posing hazards to satellites and human spaceflight. The Fengyun 1C debris cloud has become a focal point in discussions about space sustainability and the need for international regulations to prevent the creation of new debris.

Loading next visibility...
Identifier
30253, 1999-025XN
Orbit
SSO
Country
Flag of CNCN / PRC
Related business
Manufacturer
Unknown
Mission
Spacecraft
Bus & Motor
Unknown
Mass
Unknown
Launch date (UTC)
1999-05-10 (27 years ago)
Launch vehicle
Unknown
Launch site
Taiyaun Space Center, China (TSC)
Object type
Payload
Rocket body
Debris
Shape & HBR
Unknown shape, 0.1 m
Radar Cross Section
Small (<0.1 m²)

Expand to show TLE details & history
Last TLE update: 8 hours ago

TLE from 8 hours ago
0 FENGYUN 1C DEB
1 30253U 99025XN  26146.16004554  .00000658  00000-0  63036-3 0  9992
2 30253  98.7407 225.3046 0217540 322.3448  97.3247 13.73729159962711
Epoch: 2026-05-26T03:50Z
TLE epoch observation values (Epoch: 2026-05-26T03:50:27.934Z)
Latitude
60.99181°
Longitude
-92.06157°
Altitude
1,020.421 km
Speed
7.335 km/s
True Right ascension
13h 57m 10s
True Declination
60° 51' 03"
Sunlit
Object was in daylight at epoch
Visualization orbit readout
Latitude
Unknown
Longitude
Unknown
Altitude
Unknown
Speed
Unknown
Apparent Right ascension
Unknown
Apparent Declination
Unknown
Sunlit
N/A
Visualization observer readout
Local Sidereal Time
21:30:29
Azimuth
Unknown
Elevation
Unknown
Doppler factor
Unknown
Orbital elements
Apogee altitude
1,143.577 km
Perigee altitude
823.29 km
Semi-major axis
7,361.57 km
Eccentricity
0.02175
Inclination
98.7407°
RAAN
225.3046°
Arg. of periapsis
322.3448°
True anomaly
99.78788°
Mean anomaly
97.3247°
Eccentric anomaly
98.55724°
Mean motion
3.43627 °/min
Orbital period
104.76 mins
BSTAR
0.00063036
Loading maneuver chart data...
Computing Atmospheric mass density...
Loading historical data...
Loading historical data...
Loading historical data...
Loading historical data...
Loading historical data...
Loading historical data...
Loading historical data...

Documentation

Showing up to 5 results
|